Location: Unspecified
(0.0000°N, 0.0000°E)
Time: 11:19:13
(UTC+01:00)

Tiros 1 despin weight - All Passes

Search period start: 29 January 2015 00:00
Search period end: 08 February 2015 00:00
Orbit: 599 x 649 km, 48.2° (Epoch: 27 January)

Date Brightness Start Highest point End Pass type
(mag) Time Alt. Az. Time Alt. Az. Time Alt. Az.
29 Jan - 03:23:50 10° N 03:26:40 17° NE 03:29:40 10° E night (unlit)
29 Jan - 05:04:13 10° WNW 05:08:19 34° SW 05:12:20 10° SSE visible
29 Jan - 15:31:54 10° S 15:35:52 29° SE 15:39:56 10° ENE daylight
29 Jan - 17:13:52 10° W 17:17:31 22° NW 17:21:04 10° N daylight
30 Jan - 03:40:57 10° NNW 03:45:17 47° NE 03:49:36 10° SE visible
30 Jan - 05:24:58 10° WSW 05:26:57 12° SW 05:28:42 10° SSW visible
30 Jan - 15:49:46 10° SW 15:54:24 83° SE 15:59:05 10° NE daylight
31 Jan - 02:21:20 10° NE 02:22:02 10° NE 02:23:02 10° ENE night (unlit)
31 Jan - 03:59:21 10° NW 04:03:47 56° SW 04:08:10 10° SSE visible
31 Jan - 14:28:11 10° S 14:31:17 18° SE 14:34:33 10° E daylight
31 Jan - 16:08:42 10° WSW 16:12:55 34° NW 16:17:08 10° NNE daylight
01 Feb - 02:36:49 10° N 02:40:44 29° NE 02:44:41 10° ESE night (unlit)
01 Feb - 04:18:59 10° W 04:22:21 20° SW 04:25:34 10° S visible
01 Feb - 14:45:25 10° SSW 14:49:51 50° SE 14:54:23 10° NE daylight
01 Feb - 16:29:25 10° WNW 16:31:35 13° NW 16:33:31 10° NNW daylight
02 Feb - 02:54:42 10° NW 02:59:16 86° NE 03:03:46 10° SE night (unlit)
02 Feb - 13:25:22 10° SSE 13:26:38 11° SE 13:28:12 10° ESE daylight
02 Feb - 15:03:50 10° SW 15:08:21 55° NW 15:12:53 10° NNE daylight
03 Feb - 01:33:01 10° N 01:36:08 19° NE 01:39:22 10° E night (unlit)
03 Feb - 03:13:42 10° WNW 03:17:46 31° SW 03:21:45 10° SSE night (unlit)
03 Feb - 13:41:17 10° S 13:45:17 30° SE 13:49:24 10° ENE daylight
03 Feb - 15:23:29 10° W 15:26:56 20° NW 15:30:16 10° N daylight
04 Feb - 01:50:17 10° NNW 01:54:43 51° NE 01:59:08 10° SE night (unlit)
04 Feb - 03:34:44 10° WSW 03:36:24 11° SW 03:37:48 10° SSW night (unlit)
04 Feb - 13:59:13 10° SW 14:03:47 89° SE 14:08:26 10° NE daylight
05 Feb - 00:29:58 10° NNE 00:31:28 12° NE 00:33:13 10° ENE night (unlit)
05 Feb - 02:08:45 10° NW 02:13:13 52° SW 02:17:36 10° SSE night (unlit)
05 Feb - 12:37:29 10° S 12:40:41 19° SE 12:44:03 10° E daylight
05 Feb - 14:18:13 10° WSW 14:22:18 31° NW 14:26:22 10° NNE daylight
06 Feb - 00:46:04 10° NNW 00:50:08 32° NE 00:54:13 10° ESE night (unlit)
06 Feb - 02:28:29 10° W 02:31:45 19° SW 02:34:52 10° S night (unlit)
06 Feb - 12:54:48 10° SSW 12:59:14 54° SE 13:03:43 10° NE daylight
06 Feb - 14:39:18 10° WNW 14:40:59 11° NW 14:42:23 10° NNW daylight
07 Feb - 01:04:02 10° NW 01:08:38 87° SW 01:13:11 10° SE night (unlit)
07 Feb - 11:34:25 10° SSE 11:36:01 12° SE 11:37:53 10° ESE daylight
07 Feb - 13:13:17 10° SW 13:17:42 50° NW 13:22:10 10° NNE daylight
07 Feb - 23:42:09 10° N 23:45:30 20° NE 23:48:57 10° E night (unlit)
